Tracking 35274 objects as of 12-Sep-2026
HD Live streaming from Space Station
objects crossing your sky now

STARLINK-32127

Track STARLINK-32127 now!
10-day predictions
STARLINK-32127 is classified as:


NORAD ID: 60146
Int'l Code: 2024-120M
Launch date: June 27, 2024
Source: United States (US)
Launch site: AIR FORCE EASTERN TEST RANGE (AFETR)
Your satellite tracking list
Your tracking list is empty




NASA's NSSDC Master Catalog

Two Line Element Set (TLE):
1 60146U 24120M   26254.97269676 -.00001066  00000-0 -20427-4 0  9991
2 60146  53.1597 171.3502 0001262  80.4879 279.6266 15.34382922124942
Source of the keplerian elements: AFSPC